Weather History for EGPH - May, 2013

Change the Weather History Date:

Tuesday, May 21, 2013

  Actual Average Record
Temperature  
Mean Temperature 50 °F -  
Max Temperature 60 °F 62 °F 66 °F (2001)
Min Temperature 41 °F 46 °F 37 °F (2004)
Degree Days  
Heating Degree Days 14    
Moisture  
Dew Point 47 °F    
Average Humidity 82    
Maximum Humidity 100    
Minimum Humidity 63    
Precipitation  
Precipitation 0.00 in 0.07 in - ()
Sea Level Pressure  
Sea Level Pressure 30.05 in    
Wind  
Wind Speed 4 mph ()    
Max Wind Speed 12 mph    
Max Gust Speed -    
Visibility 5.2 miles    
Events Fog    
Averages and records for this station are not official NWS values.
T = Trace of Precipitation, MM = Missing Value Source: Averaged Metar Reports

Daily Weather History Graph

Daily Weather History Graph

Search for Another Location

Airport or City:

Trip Planner

Search our weather history database for the weather conditions in past years. The results will help you decide how hot, cold, wet, or windy it might be!

Date:

Astronomy

May. 21, 2013 Rise Set
Actual Time 4:50 AM BST 9:30 PM BST
Civil Twilight 3:57 AM BST 10:23 PM BST
Nautical Twilight 2:30 AM BST 11:53 PM BST
Astronomical Twilight Sun does not rise Sun does not rise
Moon 4:46 PM BST (5/21) 2:58 AM BST (5/21)
Length of Visible Light 18h 25m
Length of Day
16h 40m
Waxing Gibbous, 82% of the Moon is Illuminated
May 21
Waxing Gibbous
May 25
Full
May 31
Last Quarter
Jun 8
New
Jun 16
First Quarter

Hourly Weather History & Observations

Time (BST) Temp. Windchill Dew Point Humidity Pressure Visibility Wind Dir Wind Speed Gust Speed Precip Events Conditions
12:20 AM 51.8 °F - 50.0 °F 94% 30.04 in 6.2 mi Variable 2.3 mph - N/A   Mostly Cloudy
12:50 AM 50.0 °F - 50.0 °F 100% 30.04 in 0.5 mi WSW 3.5 mph - N/A Fog Fog
1:20 AM 48.2 °F - 48.2 °F 100% 30.04 in 6.2 mi NNW 2.3 mph - N/A Fog Shallow Fog
1:50 AM 48.2 °F - 48.2 °F 100% 30.04 in 6.2 mi Calm Calm - N/A Fog Shallow Fog
2:20 AM 48.2 °F - 48.2 °F 100% 30.04 in 6.2 mi Variable 2.3 mph - N/A Fog Shallow Fog
2:50 AM 44.6 °F - 44.6 °F 100% 30.04 in 0.1 mi Calm Calm - N/A Fog Fog
3:20 AM 44.6 °F - 44.6 °F 100% 30.04 in 0.6 mi Calm Calm - N/A Fog Fog
3:50 AM 44.6 °F - 44.6 °F 100% 30.04 in 0.6 mi Variable 2.3 mph - N/A Fog Fog
4:20 AM 42.8 °F 41.1 °F 42.8 °F 100% 30.04 in 0.6 mi Variable 3.5 mph - N/A Fog Fog
4:50 AM 41.0 °F - 41.0 °F 100% 30.04 in 0.6 mi Variable 2.3 mph - N/A Fog Patches of Fog
5:20 AM 41.0 °F - 41.0 °F 100% 30.04 in 0.1 mi Calm Calm - N/A Fog Fog
5:50 AM 42.8 °F - 42.8 °F 100% 30.04 in 6.2 mi Variable 2.3 mph - N/A Fog Patches of Fog
6:20 AM 44.6 °F - 44.6 °F 100% 30.04 in 6.2 mi Variable 2.3 mph - N/A Fog Unknown
6:50 AM 48.2 °F - 48.2 °F 100% 30.04 in 4.3 mi West 2.3 mph - N/A   Unknown
7:50 AM 50.0 °F - 50.0 °F 100% 30.04 in 6.2 mi Variable 2.3 mph - N/A   Partly Cloudy
8:20 AM 53.6 °F - 48.2 °F 82% 30.04 in 6.2 mi West 4.6 mph - N/A   Partly Cloudy
8:50 AM 55.4 °F - 48.2 °F 77% 30.04 in 6.2 mi Variable 2.3 mph - N/A   Partly Cloudy
9:20 AM 55.4 °F - 48.2 °F 77% 30.04 in 6.2 mi Variable 3.5 mph - N/A   Scattered Clouds
9:50 AM 55.4 °F - 48.2 °F 77% 30.04 in 6.2 mi Variable 3.5 mph - N/A   Scattered Clouds
10:20 AM 57.2 °F - 46.4 °F 67% 30.06 in 6.2 mi WNW 4.6 mph - N/A   Scattered Clouds
10:50 AM 59.0 °F - 48.2 °F 67% 30.04 in 6.2 mi West 5.8 mph - N/A   Scattered Clouds
11:20 AM 59.0 °F - 46.4 °F 63% 30.04 in 6.2 mi West 6.9 mph - N/A   Scattered Clouds
11:50 AM 59.0 °F - 46.4 °F 63% 30.04 in 6.2 mi NW 5.8 mph - N/A   Mostly Cloudy
12:20 PM 59.0 °F - 48.2 °F 67% 30.04 in 6.2 mi NE 9.2 mph - N/A   Scattered Clouds
12:50 PM 59.0 °F - 48.2 °F 67% 30.04 in 6.2 mi NE 9.2 mph - N/A   Scattered Clouds
1:20 PM 59.0 °F - 46.4 °F 63% 30.04 in 6.2 mi ENE 8.1 mph - N/A   Scattered Clouds
1:50 PM 60.8 °F - 48.2 °F 63% 30.04 in 6.2 mi NE 6.9 mph - N/A   Scattered Clouds
2:20 PM 60.8 °F - 48.2 °F 63% 30.04 in 6.2 mi ENE 6.9 mph - N/A   Partly Cloudy
2:50 PM 60.8 °F - 48.2 °F 63% 30.04 in 6.2 mi NNE 8.1 mph - N/A   Partly Cloudy
3:20 PM 57.2 °F - 46.4 °F 67% 30.04 in 6.2 mi NE 10.4 mph - N/A   Partly Cloudy
3:50 PM 57.2 °F - 46.4 °F 67% 30.04 in 6.2 mi NE 11.5 mph - N/A   Partly Cloudy
4:20 PM 59.0 °F - 48.2 °F 67% 30.04 in 6.2 mi ENE 10.4 mph - N/A   Partly Cloudy
4:50 PM 55.4 °F - 46.4 °F 72% 30.04 in 6.2 mi NE 6.9 mph - N/A   Partly Cloudy
5:20 PM 57.2 °F - 46.4 °F 67% 30.04 in 6.2 mi NE 5.8 mph - N/A   Partly Cloudy
5:50 PM 55.4 °F - 46.4 °F 72% 30.04 in 6.2 mi NE 6.9 mph - N/A   Partly Cloudy
6:20 PM 55.4 °F - 48.2 °F 77% 30.04 in 6.2 mi NE 5.8 mph - N/A   Partly Cloudy
6:50 PM 53.6 °F - 48.2 °F 82% 30.04 in 6.2 mi NE 4.6 mph - N/A   Partly Cloudy
7:20 PM 53.6 °F - 48.2 °F 82% 30.04 in - Variable 3.5 mph - N/A   Clear
7:50 PM 53.6 °F - 46.4 °F 77% 30.04 in - Variable 2.3 mph - N/A   Clear
8:20 PM 53.6 °F - 46.4 °F 77% 30.04 in - NE 5.8 mph - N/A   Clear
8:50 PM 51.8 °F - 46.4 °F 82% 30.06 in - ENE 6.9 mph - N/A   Clear
9:20 PM 50.0 °F - 44.6 °F 82% 30.06 in 6.2 mi ENE 9.2 mph - N/A   Mostly Cloudy
9:50 PM 50.0 °F - 44.6 °F 82% 30.09 in 6.2 mi ENE 6.9 mph - N/A   Mostly Cloudy
10:20 PM 50.0 °F - 44.6 °F 82% 30.09 in 6.2 mi Variable 2.3 mph - N/A   Overcast
10:50 PM 50.0 °F - 44.6 °F 82% 30.09 in 6.2 mi Calm Calm - N/A   Mostly Cloudy
11:20 PM 50.0 °F - 44.6 °F 82% 30.09 in 6.2 mi North 2.3 mph - N/A   Mostly Cloudy
11:50 PM 50.0 °F - 44.6 °F 82% 30.09 in 6.2 mi WNW 2.3 mph - N/A   Overcast